USA 40 R/B DEB, 23385

Orbit data source: Space-Track

USA 40 R/B DEB, 23385 is space debris originally from a launch on Tue, 08 Aug 1989 UTC launched from the Air Force Eastern Test Range (AFETR). Debris objects in space refer to the collection of defunct objects orbiting the Earth. Examples of debris include non-operational satellites, rocket bodies, and fragments generated from explosions, collisions, or faulty payload assembly.

Loading next visibility...
Identifier
23385, 1989-061BH
Orbit
Active
Country
Flag of USUS
Related business
Manufacturer
Unknown
Mission
Spacecraft
Bus & Motor
Unknown
Mass
Unknown
Launch date (UTC)
1989-08-08 (37 years ago)
Launch vehicle
Unknown
Launch site
Air Force Eastern Test Range (AFETR)
Object type
Payload
Rocket body
Debris
Shape & HBR
Unknown shape, 0.1 m
Radar Cross Section
Small (<0.1 m²)

Expand to show TLE details & history
Last TLE update: 23 hours ago

TLE from 23 hours ago
0 USA 40 R/B DEB
1 23385U 89061BH  26093.54258558  .00002796  00000-0  25513-2 0  9999
2 23385  56.9836 205.5139 3058691  91.7227 303.0721  8.73821337223167
Epoch: 2026-04-03T13:01Z
TLE epoch observation values (Epoch: 2026-04-03T13:01:19.394Z)
Latitude
0.00004°
Longitude
178.3079°
Altitude
2,727.623 km
Speed
6.895 km/s
True Right ascension
13h 42m 03s
True Declination
0° 00' 00"
Sunlit
Object was in full shadow at epoch
Visualization orbit readout
Latitude
Unknown
Longitude
Unknown
Altitude
Unknown
Speed
Unknown
Apparent Right ascension
Unknown
Apparent Declination
Unknown
Sunlit
N/A
Visualization observer readout
Local Sidereal Time
17:22:54
Azimuth
Unknown
Elevation
Unknown
Doppler factor
Unknown
Orbital elements
Apogee altitude
6,623.791 km
Perigee altitude
533 km
Semi-major axis
9,956.533 km
Eccentricity
0.30587
Inclination
56.9836°
RAAN
205.5139°
Arg. of periapsis
91.7227°
True anomaly
268.36497°
Mean anomaly
303.0721°
Eccentric anomaly
286.24696°
Mean motion
2.18465 °/min
Orbital period
164.79 mins
BSTAR
0.0025513
Loading maneuver chart data...
Computing Atmospheric mass density...
Loading historical data...
Loading historical data...
Loading historical data...
Loading historical data...
Loading historical data...
Loading historical data...
Loading historical data...

Documentation

Showing up to 5 results
|